Tennant Creek Airport
YTNK : now visible

Airfield :











YOU CAN JOIN US ON...

 
LOGIN :

Register | Disclaimer

   EN    FR    IT 

 









Legend :    VFR   Marginal VFR   IFR   Intensive IFR   Very Intensive IFR
Visi :
Ceiling :
>= 8 km
>= 3000ft
5 to 8 km
1000 to 3000 ft
1500m to 5 km
500 to 1000 ft
800 to 1500m
200 to 500 ft
< 800m
< 200 ft
Symbols :   Thunderstorms  Fog  Heavy snow  Heavy precipitations  Wind > 20 kt






- Airport Elevation : 1236 ft
- IATA code : TCA


YTNK - Tennant Creek

CURRENT METAR :
  • 290600Z AUTO 27009KT 9999 // NCD 33/M04 Q1013

EXPIRED METARs :
  • 290500Z AUTO 27008KT 250V320 9999 // NCD 34/M01 Q1013
  • 290400Z AUTO 25011KT 9999 // NCD 33/M01 Q1014

TAF TAF YTNK
Valid from the 29 at 02:00 until the 29 at 14:00 UTC


290111Z 2902/2914 18007KT CAVOK
FM290400 26008KT CAVOK
YBBB FIR / Oceania



MET'MAP, your aeronautical weather chart ! - Copyright ORBIFLY December 2007 - Disclaimer

ORBIFLY MET'MAP TEAM :

Programming & Development : Alexandra Zaïnal
Concept & original design : Baudouin d'Aumeries
Assistance for programming : Marc-Olivier Méhu
Technical & hardware support : Manuel Goepfert

Contact : metmap@orbifly.com




SOURCES & CREDITS :

   NOAA       Earth
Advisory